Total_Precipitation_Accumulation
3.16 3.37 3.40 3.63 3.57 3.54 3.37 3.13 2.73 2.58 2.44 2.19 1.97 1.95 1.93 1.86 1.92 1.99 2.12 2.17 2.21 2.48 2.93 3.21 3.20 3.12 3.19 3.21 3.28 3.27 3.17 3.06 2.92 2.75 2.62 2.52 2.49 2.57 2.61 2.70 2.58 2.47 2.42
3.65 3.73 3.76 3.96 3.80 3.54 3.48 3.29 2.94 2.76 2.58 2.43 2.13 1.96 1.98 2.19 2.13 2.05 2.18 2.23 2.20 2.28 2.66 3.15 3.46 3.62 3.72 3.76 3.64 3.39 3.31 3.25 3.26 3.12 2.93 2.70 2.62 2.54 2.49 2.64 2.74 2.63 2.57
4.21 4.06 4.19 4.32 4.12 3.79 3.74 3.64 3.48 3.11 2.88 2.81 2.61 2.34 2.21 2.29 2.37 2.47 2.48 2.48 2.49 2.46 2.65 2.98 3.31 3.57 3.77 3.99 3.92 3.67 3.50 3.48 3.51 3.46 3.33 3.04 2.86 2.70 2.64 2.60 2.66 2.73 2.59
4.71 4.75 4.57 4.42 4.26 4.02 3.95 4.08 3.81 3.43 3.31 3.32 3.12 2.73 2.42 2.51 2.60 2.57 2.58 2.63 2.80 2.71 2.74 2.76 2.93 3.21 3.49 3.80 3.99 4.03 3.91 3.87 3.76 3.62 3.52 3.40 3.25 3.05 2.83 2.81 2.73 2.71 2.65
4.84 4.98 4.93 4.79 4.58 4.42 4.34 4.01 3.92 3.76 3.69 3.60 3.15 2.92 2.57 2.47 2.57 2.50 2.56 2.63 2.86 2.96 2.95 2.71 2.82 3.16 3.38 3.67 3.98 4.25 4.35 4.31 4.10 3.98 3.89 3.80 3.66 3.42 3.15 2.96 2.87 2.85 2.85
5.23 5.27 5.12 5.00 4.91 4.83 4.68 4.44 4.33 4.20 3.90 3.74 3.26 3.00 2.72 2.47 2.45 2.46 2.41 2.49 2.57 2.61 2.70 2.73 2.78 2.73 2.99 3.34 3.73 4.14 4.49 4.76 4.54 4.22 4.06 4.07 3.98 3.72 3.53 3.33 3.17 3.09 3.08
5.68 5.60 5.47 5.34 5.10 4.91 4.78 4.64 4.46 4.26 3.91 3.77 3.60 3.27 2.79 2.41 2.37 2.34 2.25 2.31 2.34 2.31 2.43 2.53 2.74 2.72 2.61 2.89 3.13 3.57 4.04 4.59 4.82 4.67 4.43 4.31 4.22 4.01 3.75 3.51 3.41 3.37 3.27
6.28 6.03 6.05 5.76 5.38 5.13 4.83 4.58 4.38 4.07 3.70 3.68 3.70 3.79 3.31 2.85 2.26 1.92 1.96 1.99 1.98 2.01 2.12 2.24 2.38 2.50 2.44 2.54 2.57 2.88 3.24 3.63 4.13 4.44 4.48 4.39 4.26 4.06 3.89 3.72 3.54 3.51 3.56
6.30 5.95 5.76 5.65 5.37 4.85 4.58 4.41 4.17 3.97 3.75 3.60 3.52 3.77 3.54 3.13 2.59 2.19 1.91 1.75 1.79 1.92 1.98 2.10 2.16 2.18 2.14 2.19 2.21 2.38 2.58 2.74 3.22 3.77 4.08 4.09 4.04 3.90 3.82 3.82 3.80 3.68 3.61
5.86 5.52 5.32 5.04 4.79 4.45 4.25 3.94 3.83 3.83 3.80 3.58 3.46 3.23 2.99 2.83 2.85 2.60 2.22 1.96 1.88 1.89 1.86 1.83 1.87 1.97 2.02 2.04 2.11 2.12 2.20 2.31 2.62 2.99 3.37 3.55 3.58 3.56 3.52 3.51 3.55 3.56 3.62
5.25 4.79 4.53 4.28 4.02 3.78 3.56 3.33 3.30 3.38 3.42 3.36 3.30 3.20 3.06 2.94 2.76 2.63 2.50 2.40 2.24 2.05 1.92 1.84 1.82 1.82 1.82 1.87 1.93 1.97 2.09 2.06 2.14 2.33 2.61 2.86 3.00 3.14 3.23 3.29 3.34 3.43 3.57
4.55 4.18 3.83 3.57 3.26 3.04 2.88 2.80 2.73 2.73 2.84 2.87 2.93 2.93 2.93 3.01 2.91 2.87 2.68 2.53 2.46 2.26 2.08 1.94 1.86 1.82 1.77 1.84 1.90 2.09 1.98 2.01 2.07 2.05 2.15 2.31 2.42 2.62 2.81 3.03 3.21 3.40 3.63
3.51 3.25 2.99 2.81 2.56 2.46 2.44 2.47 2.46 2.45 2.48 2.52 2.60 2.67 2.69 2.70 2.72 2.88 3.01 2.79 2.53 2.24 2.14 1.98 1.83 1.81 1.78 1.85 1.87 1.92 1.76 1.71 1.75 1.76 1.87 2.01 2.11 2.26 2.42 2.57 2.74 2.92 3.10
2.48 2.37 2.34 2.15 2.05 2.04 2.00 2.12 2.14 2.18 2.25 2.24 2.20 2.39 2.49 2.41 2.39 2.51 2.75 2.83 2.71 2.42 2.14 1.95 1.77 1.71 1.73 1.71 1.82 1.80 1.58 1.64 1.57 1.53 1.53 1.62 1.73 1.84 1.99 2.10 2.28 2.43 2.49
2.10 2.00 1.98 1.96 1.90 1.92 1.87 1.91 1.92 1.85 1.95 2.01 1.98 2.10 2.20 2.14 2.09 2.10 2.25 2.44 2.64 2.59 2.17 1.80 1.70 1.63 1.61 1.60 1.71 1.45 1.46 1.56 1.47 1.38 1.33 1.33 1.44 1.53 1.61 1.64 1.74 1.89 2.06
2.03 1.92 1.83 1.80 1.75 1.69 1.66 1.77 1.78 1.74 1.76 1.76 1.77 1.87 1.91 1.88 1.90 1.86 1.91 2.02 2.23 2.41 2.24 1.70 1.53 1.49 1.56 1.42 1.50 1.30 1.36 1.40 1.28 1.20 1.12 1.08 1.10 1.24 1.31 1.30 1.36 1.47 1.66
1.77 1.73 1.54 1.51 1.48 1.43 1.43 1.54 1.57 1.61 1.62 1.60 1.54 1.54 1.60 1.67 1.79 1.69 1.72 1.80 1.93 2.12 2.19 1.78 1.57 1.54 1.60 1.60 1.57 1.49 1.34 1.22 1.15 1.17 1.06 1.02 0.99 1.03 1.12 1.13 1.15 1.20 1.36
1.55 1.53 1.44 1.33 1.25 1.28 1.39 1.41 1.35 1.36 1.43 1.43 1.43 1.44 1.43 1.52 1.65 1.66 1.67 1.66 1.76 1.90 2.00 1.93 1.72 1.60 1.57 1.57 1.57 1.56 1.30 1.08 1.04 1.15 1.07 1.00 1.00 0.98 1.01 1.06 1.06 1.06 1.05
1.39 1.36 1.36 1.34 1.31 1.24 1.26 1.26 1.24 1.29 1.33 1.36 1.39 1.38 1.34 1.46 1.51 1.51 1.53 1.53 1.58 1.62 1.74 1.71 1.53 1.49 1.44 1.43 1.59 1.57 1.45 1.40 1.02 0.97 0.99 0.92 0.96 0.95 0.92 0.94 0.96 0.97 0.92
1.27 1.18 1.19 1.24 1.24 1.20 1.16 1.15 1.16 1.28 1.40 1.34 1.26 1.27 1.30 1.29 1.30 1.37 1.38 1.47 1.57 1.68 1.72 1.67 1.51 1.39 1.41 1.43 1.68 1.75 1.67 1.49 1.25 0.92 0.95 0.90 0.90 0.87 0.86 0.90 0.86 0.87 0.90
1.24 1.22 1.19 1.17 1.15 1.12 1.05 1.07 1.09 1.12 1.29 1.30 1.26 1.22 1.16 1.16 1.16 1.20 1.16 1.26 1.44 1.62 1.68 1.71 1.60 1.48 1.48 1.65 1.66 1.57 1.56 1.45 1.28 1.04 1.04 0.96 0.97 1.12 1.31 1.37 1.16 0.93 0.91
1.20 1.24 1.23 1.18 1.09 0.96 1.04 1.06 1.00 1.07 1.19 1.24 1.25 1.19 1.10 1.03 0.97 0.97 0.94 1.00 1.20 1.41 1.59 1.74 1.68 1.60 1.54 1.65 1.74 1.66 1.69 1.72 1.56 1.20 1.22 1.13 1.12 1.49 1.87 2.05 1.64 1.08 0.95
1.16 1.22 1.24 1.24 1.14 1.05 1.08 1.03 1.02 1.02 1.11 1.23 1.27 1.24 1.04 0.89 1.00 0.97 0.96 0.94 0.98 1.08 1.34 1.65 1.79 1.66 1.62 1.73 1.88 1.84 1.84 1.84 1.71 1.42 1.49 1.45 1.37 1.65 1.66 1.75 1.70 1.27 1.14
1.17 1.26 1.31 1.26 1.18 1.08 1.07 1.02 1.01 0.99 1.01 1.09 1.14 1.16 1.24 1.22 1.09 1.05 0.98 1.00 1.06 1.11 1.16 1.25 1.49 1.54 1.44 1.52 1.72 1.76 1.79 1.76 1.67 1.60 1.66 1.71 1.53 1.61 1.49 1.80 1.98 1.79 1.57
1.19 1.23 1.23 1.26 1.24 1.16 1.05 0.99 1.03 0.98 0.95 0.94 0.93 0.98 1.08 1.15 1.08 0.99 0.98 1.09 1.17 1.19 1.06 1.14 1.21 1.35 1.43 1.38 1.41 1.54 1.78 1.94 1.90 1.67 1.61 1.71 1.66 1.70 1.78 2.07 2.07 2.04 1.90
1.18 1.16 1.19 1.22 1.23 1.19 1.00 0.86 0.92 0.89 0.92 0.92 0.98 1.01 0.97 0.93 0.97 0.91 0.94 1.15 1.25 1.23 1.29 1.44 1.58 1.67 1.61 1.53 1.39 1.48 1.79 2.02 2.02 1.92 1.64 1.78 1.91 2.07 2.34 2.36 2.23 2.03 1.97